SCP
0 0 0 0 0 0 0 0 0 0 0 0 0 0 0 0 0 0 0 -0 -0 0 0 0 0 0 0 0 0 0 0 0 0 0 0 0 0 0
0 0 0 0 0 0 0 0 0 0 0 0 0 0 0 0 0 0 0 0 0 0 0 0 0 0 0 0 0 0 0 0 0 0 0 0 0 0
0 0 0 0 0 0 0 0 0 0 0 0 0 0 0 0 0 0 0 0 0 0 0 0 0 0 0 0 0 0 0 0 0 0 0 0 0 0
0 0 0 0 0 0 0 0 0 0 0 0 0 0 0 0 0 0 0 0 0 0 0 0 0 0 0 0 0 0 0 0 0 0 0 0 0 0
0 0 0 0 0 0 0 0 0 0 0 0 0 0 0 0 0 0 0 0 0 0 0 0 0 0 0 0 0 0 0 0 0 0 -0 0 0 0
0 0 0 0 0 0 0 0 0 0 0 0 0 0 0 0 0 0 0 0 0 0 0 0 0 0 0 0 0 0 0 0 0 0 -0 -0 0 0
0 0 0 0 0 0 0 0 0 0 0 0 0 0 0 0 0 0 0 0 0 0 0 0 0 0 0 0 0 0 0 0 0 0 0 -0 -0 0
0 0 0 0 0 0 0 0 0 0 0 0 0 0 0 0 0 0 0 0 0 0 0 0 0 0 0 0 0 0 0 0 0 0 0 -0 -0 -0
0 0 0 0 0 0 0 0 0 0 0 0 0 0 0 0 0 0 0 0 0 0 0 0 0 0 0 0 0 0 0 0 0 0 0 0 -0 -0
0 0 0 0 0 0 0 0 0 0 0 0 0 0 0 0 0 0 0 0 0 0 0 0 0 0 0 0 0 0 0 -0 0 0 0 0 -0 -0
0 0 0 0 0 0 0 0 0 0 0 0 0 0 0 0 0 0 0 0 0 0 0 0 0 0 0 0 0 0 0 0 0 0 -0 -0 -0 0
0 0 0 0 0 0 0 0 0 0 0 0 0 0 0 0 0 0 0 0 0 0 0 0 0 0 0 0 -0 0 0 0 -0 -0 -0 -0 -0 -0
0 0 0 0 0 0 0 0 0 0 0 0 0 0 0 0 0 0 0 0 0 0 0 0 0 0 0 0 0 0 0 -0 -0 -0 -0 -0 -0 0
0 0 0 0 0 0 0 0 0 0 0 0 0 0 0 0 0 0 0 0 0 0 0 0 0 0 0 0 -0 -0 -0 0 0 -0 -0 -0 -0 -0
0 0 0 0 0 0 0 0 0 0 0 0 0 0 0 0 0 0 0 0 0 0 0 0 0 0 0 0 -0 -0 -0 -0 -0 -0 -0 -0 -0 0
0 0 0 0 0 0 0 0 0 0 0 0 0 0 0 0 0 0 0 0 0 0 0 0 0 0 0 0 0 -0 0 -0 -0 -0 -0 -0 -0 -0
0 0 0 0 0 0 0 0 0 0 0 0 0 0 0 0 0 0 0 0 0 0 0 0 0 0 0 0 0 0 -0 -0 -0 -0 -0 -0 -0 -0
0 0 0 0 0 0 0 0 0 0 0 0 0 0 0 0 0 0 0 0 0 0 0 0 0 0 0 0 0 0 -0 -0 -0 -0 -0 -0 0 -0
0 0 0 0 0 0 0 0 0 0 0 0 0 0 0 0 0 0 0 0 0 0 0 0 0 0 0 0 0 0 -0 -0 -0 -0 -0 -0 -0 0
0 0 0 0 0 0 0 0 0 0 0 0 0 0 0 0 0 0 0 0 0 0 0 0 0 0 0 0 -0 -0 -0 -0 -0 -0 -0 -0 -0 -0
0 0 0 0 0 0 0 0 0 0 0 0 0 0 0 0 0 0 0 0 0 0 0 0 0 0 0 0 -0 -0 -0 -0 -0 -0 -0 -0 -0 -0
0 0 0 0 0 0 0 0 0 0 0 0 0 0 0 0 0 0 0 0 0 0 0 0 0 0 0 0 -0 -0 -0 -0 -0 0 0 0 -0 -0
0 0 0 0 0 0 0 0 0 0 0 0 0 0 0 0 0 0 0 0 0 0 0 0 0 0 0 -0 -0 0 0 0 -0 0 -0 0 -0 -0
Wind_Speed_500mb
19 18 11 14 15 16 17 18 21 29 28 24 31 30 30 34 35 49 45 38 36 35 37 41 41 39 42 43 42 39 37 38 40 37 38 38 35 48
6 17 10 14 12 15 15 15 18 21 29 28 29 31 40 37 35 45 43 37 35 42 42 36 34 34 44 46 40 40 38 37 37 37 37 39 34 30
11 12 15 19 12 10 12 15 17 19 26 30 29 35 41 42 42 48 35 40 34 36 44 47 43 43 44 42 41 42 45 55 55 51 46 47 44 41
8 11 14 12 13 20 12 23 17 24 26 36 37 34 34 40 43 42 37 32 36 38 47 43 43 53 43 44 42 42 43 45 60 68 65 66 57 50
10 9 13 15 15 14 17 20 19 22 24 29 35 32 34 31 42 35 38 38 32 37 38 39 44 48 44 43 46 42 47 59 64 47 44 37 45 55
12 9 10 15 18 19 19 19 22 27 24 26 29 30 29 33 32 35 40 33 38 36 33 39 37 41 41 43 47 37 41 63 57 45 42 37 31 34
11 7 19 22 19 22 23 26 28 27 25 25 27 29 30 35 37 40 41 41 38 33 38 39 42 40 38 39 42 34 54 58 57 48 51 49 43 38
9 11 16 25 27 28 25 27 31 35 32 30 28 29 35 34 36 40 39 46 47 35 45 47 46 35 43 40 47 56 58 55 56 52 52 67 61 51
10 8 4 17 21 21 25 29 28 36 34 36 38 39 41 35 42 46 41 40 44 52 47 50 40 45 47 43 53 56 54 61 58 51 60 69 55 43
10 10 10 13 22 24 26 22 23 23 23 29 39 37 34 37 37 40 47 48 43 41 44 49 45 51 53 50 48 46 45 65 51 51 62 63 59 62
10 12 11 15 19 23 25 24 24 22 25 34 29 28 34 40 42 43 39 41 49 46 42 47 52 52 52 50 34 47 53 51 50 54 68 70 69 69
12 16 13 13 19 23 25 26 27 30 33 28 33 32 31 37 38 33 32 41 43 47 43 53 47 53 65 32 59 43 38 47 43 56 63 80 64 58
14 12 22 20 21 23 24 25 29 31 25 32 28 27 28 29 26 31 36 37 43 49 45 44 46 57 52 66 50 49 49 50 53 60 56 77 54 40
18 15 27 18 18 19 20 25 23 24 27 24 26 27 30 31 33 36 41 44 44 49 53 36 50 46 54 66 57 55 53 46 49 57 63 81 63 40
19 27 20 16 16 17 24 28 23 21 21 22 26 28 30 34 41 37 41 44 43 41 38 46 43 43 51 48 55 58 49 49 44 68 78 73 67 46
22 22 15 11 10 19 22 24 20 19 21 23 26 28 30 33 35 38 39 44 45 45 47 44 43 54 45 41 53 49 50 65 69 67 80 63 69 41
18 14 8 7 8 11 14 15 14 17 18 21 24 28 31 33 35 37 40 43 45 50 52 47 49 46 43 50 50 46 54 66 62 72 72 72 73 53
23 17 14 12 10 11 12 13 13 17 19 19 25 28 31 35 39 38 39 41 46 49 50 53 53 52 51 45 48 48 45 56 59 70 64 67 80 55
19 16 16 14 11 10 10 11 12 15 21 20 23 27 30 34 36 39 40 43 46 48 51 55 54 53 62 61 47 52 67 65 73 67 67 68 76 58
22 17 17 15 11 9 9 9 11 11 15 19 21 26 29 32 35 39 41 46 50 48 52 56 53 49 56 52 55 54 61 61 69 65 73 76 69 42
19 19 18 16 12 9 9 8 12 10 17 17 21 25 27 30 34 36 40 46 49 49 53 57 50 53 47 51 57 59 58 57 57 64 70 80 67 52
22 21 20 17 14 11 8 7 7 11 13 15 19 23 25 28 31 36 41 46 49 48 54 50 52 55 49 54 52 58 54 64 50 42 54 62 43 38
25 21 19 16 12 10 7 6 7 8 11 14 16 19 24 27 30 35 38 43 45 46 53 51 51 54 50 51 52 59 57 70 57 65 49 58 33 26
Wind_Direction_500mb
347 351 21 333 334 338 335 337 332 328 332 323 332 328 326 328 326 315 320 323 318 318 319 321 318 318 325 323 318 312 307 307 309 308 301 300 301 258
329 330 8 314 349 328 329 332 327 320 311 316 319 325 318 329 323 320 328 336 332 332 331 328 326 324 325 325 318 316 311 305 303 303 305 301 287 269
338 328 337 344 334 326 334 322 332 317 311 310 321 316 337 323 330 332 335 336 326 319 330 330 323 321 319 317 312 304 302 304 302 300 296 292 286 265
317 326 327 328 357 330 349 315 334 326 313 316 321 333 324 332 316 342 331 329 326 330 322 329 327 325 328 331 331 330 325 314 307 301 296 289 280 269
302 318 324 335 327 313 339 328 325 322 325 314 323 320 322 327 330 334 327 337 330 321 328 325 319 325 328 330 326 313 319 323 325 311 310 300 275 262
304 314 322 328 326 328 332 330 322 330 326 326 315 319 325 321 331 331 331 329 326 329 325 313 324 332 326 324 319 304 317 329 325 317 319 322 312 274
306 333 308 325 324 326 331 327 329 332 329 320 321 325 323 326 335 331 327 329 329 328 325 334 328 323 325 327 322 320 323 321 325 322 320 327 309 297
290 307 320 339 337 331 333 330 332 338 334 326 324 319 327 328 324 326 332 329 328 333 325 326 327 323 325 321 312 310 313 311 322 321 326 329 320 295
262 284 357 278 308 319 324 326 333 323 328 329 333 317 320 320 323 328 324 329 323 333 327 324 328 322 323 319 313 313 312 319 322 320 321 327 321 308
248 275 283 292 311 324 328 333 321 322 316 306 299 314 325 330 333 334 335 332 327 326 330 324 326 324 325 321 317 315 309 321 313 312 323 321 317 310
259 256 275 281 321 324 330 334 331 327 305 309 325 344 340 340 342 328 331 330 325 328 333 330 325 325 326 327 324 317 319 323 312 326 323 326 322 314
292 284 279 299 319 327 337 339 332 332 340 358 0 334 329 335 333 327 326 318 320 321 326 328 329 331 328 327 326 328 321 325 322 324 321 328 334 324
222 261 271 306 318 325 336 338 341 343 359 2 333 328 329 329 331 318 321 322 321 319 324 327 326 328 324 324 326 328 327 315 325 322 323 329 340 337
208 219 250 282 307 322 329 340 345 6 5 330 330 330 331 333 329 333 333 325 323 324 327 322 323 324 323 323 323 326 326 317 320 320 330 336 338 323
208 229 270 284 299 325 335 351 3 355 330 337 332 332 331 331 334 333 331 332 329 331 330 332 328 325 326 321 322 325 325 332 329 335 329 336 339 328
231 242 255 288 337 349 0 340 338 319 334 332 330 331 333 333 335 335 337 335 334 334 334 333 333 334 327 325 327 324 328 328 330 331 328 329 339 334
214 223 271 297 287 302 303 310 322 318 328 326 332 333 335 336 337 341 339 338 337 336 336 337 334 336 333 328 334 329 323 330 333 328 326 327 340 340
205 212 230 237 257 278 294 306 314 318 318 336 332 335 336 337 338 342 340 340 339 339 339 338 337 335 335 336 336 333 337 339 332 330 327 328 339 340
200 216 224 230 244 267 285 295 302 305 342 331 335 336 338 337 342 341 343 342 342 342 341 341 340 341 339 335 341 341 338 333 336 337 334 333 334 334
200 221 225 228 235 249 267 281 295 318 325 332 337 337 340 339 342 343 345 345 343 343 342 344 342 345 338 341 345 338 341 344 342 338 335 335 331 336
211 213 217 220 225 236 252 277 299 312 332 342 336 338 341 344 344 346 345 346 346 345 344 344 346 345 342 341 345 347 346 348 347 344 334 334 338 343
211 209 218 213 215 219 233 262 302 315 324 333 337 338 344 346 347 349 348 346 348 348 347 344 350 352 351 353 352 347 346 352 353 2 331 341 335 326
209 204 215 220 210 220 218 254 292 313 322 330 341 348 347 351 351 351 352 352 353 354 353 351 354 357 357 355 354 351 351 355 357 0 353 351 338 319
Wind_Speed_850mb
19 18 11 14 15 16 17 18 21 29 28 24 31 30 30 34 35 49 45 38 36 35 37 41 41 39 42 43 42 39 37 38 40 37 38 38 35 48
6 17 10 14 12 15 15 15 18 21 29 28 29 31 40 37 35 45 43 37 35 42 42 36 34 34 44 46 40 40 38 37 37 37 37 39 34 30
11 12 15 19 12 10 12 15 17 19 26 30 29 35 41 42 42 48 35 40 34 36 44 47 43 43 44 42 41 42 45 55 55 51 46 47 44 41
8 11 14 12 13 20 12 23 17 24 26 36 37 34 34 40 43 42 37 32 36 38 47 43 43 53 43 44 42 42 43 45 60 68 65 66 57 50
10 9 13 15 15 14 17 20 19 22 24 29 35 32 34 31 42 35 38 38 32 37 38 39 44 48 44 43 46 42 47 59 64 47 44 37 45 55
12 9 10 15 18 19 19 19 22 27 24 26 29 30 29 33 32 35 40 33 38 36 33 39 37 41 41 43 47 37 41 63 57 45 42 37 31 34
11 7 19 22 19 22 23 26 28 27 25 25 27 29 30 35 37 40 41 41 38 33 38 39 42 40 38 39 42 34 54 58 57 48 51 49 43 38
9 11 16 25 27 28 25 27 31 35 32 30 28 29 35 34 36 40 39 46 47 35 45 47 46 35 43 40 47 56 58 55 56 52 52 67 61 51
10 8 4 17 21 21 25 29 28 36 34 36 38 39 41 35 42 46 41 40 44 52 47 50 40 45 47 43 53 56 54 61 58 51 60 69 55 43
10 10 10 13 22 24 26 22 23 23 23 29 39 37 34 37 37 40 47 48 43 41 44 49 45 51 53 50 48 46 45 65 51 51 62 63 59 62
10 12 11 15 19 23 25 24 24 22 25 34 29 28 34 40 42 43 39 41 49 46 42 47 52 52 52 50 34 47 53 51 50 54 68 70 69 69
12 16 13 13 19 23 25 26 27 30 33 28 33 32 31 37 38 33 32 41 43 47 43 53 47 53 65 32 59 43 38 47 43 56 63 80 64 58
14 12 22 20 21 23 24 25 29 31 25 32 28 27 28 29 26 31 36 37 43 49 45 44 46 57 52 66 50 49 49 50 53 60 56 77 54 40
18 15 27 18 18 19 20 25 23 24 27 24 26 27 30 31 33 36 41 44 44 49 53 36 50 46 54 66 57 55 53 46 49 57 63 81 63 40
19 27 20 16 16 17 24 28 23 21 21 22 26 28 30 34 41 37 41 44 43 41 38 46 43 43 51 48 55 58 49 49 44 68 78 73 67 46
22 22 15 11 10 19 22 24 20 19 21 23 26 28 30 33 35 38 39 44 45 45 47 44 43 54 45 41 53 49 50 65 69 67 80 63 69 41
18 14 8 7 8 11 14 15 14 17 18 21 24 28 31 33 35 37 40 43 45 50 52 47 49 46 43 50 50 46 54 66 62 72 72 72 73 53
23 17 14 12 10 11 12 13 13 17 19 19 25 28 31 35 39 38 39 41 46 49 50 53 53 52 51 45 48 48 45 56 59 70 64 67 80 55
19 16 16 14 11 10 10 11 12 15 21 20 23 27 30 34 36 39 40 43 46 48 51 55 54 53 62 61 47 52 67 65 73 67 67 68 76 58
22 17 17 15 11 9 9 9 11 11 15 19 21 26 29 32 35 39 41 46 50 48 52 56 53 49 56 52 55 54 61 61 69 65 73 76 69 42
19 19 18 16 12 9 9 8 12 10 17 17 21 25 27 30 34 36 40 46 49 49 53 57 50 53 47 51 57 59 58 57 57 64 70 80 67 52
22 21 20 17 14 11 8 7 7 11 13 15 19 23 25 28 31 36 41 46 49 48 54 50 52 55 49 54 52 58 54 64 50 42 54 62 43 38
25 21 19 16 12 10 7 6 7 8 11 14 16 19 24 27 30 35 38 43 45 46 53 51 51 54 50 51 52 59 57 70 57 65 49 58 33 26
Wind_Direction_850mb
347 351 21 333 334 338 335 337 332 328 332 323 332 328 326 328 326 315 320 323 318 318 319 321 318 318 325 323 318 312 307 307 309 308 301 300 301 258
329 330 8 314 349 328 329 332 327 320 311 316 319 325 318 329 323 320 328 336 332 332 331 328 326 324 325 325 318 316 311 305 303 303 305 301 287 269
338 328 337 344 334 326 334 322 332 317 311 310 321 316 337 323 330 332 335 336 326 319 330 330 323 321 319 317 312 304 302 304 302 300 296 292 286 265
317 326 327 328 357 330 349 315 334 326 313 316 321 333 324 332 316 342 331 329 326 330 322 329 327 325 328 331 331 330 325 314 307 301 296 289 280 269
302 318 324 335 327 313 339 328 325 322 325 314 323 320 322 327 330 334 327 337 330 321 328 325 319 325 328 330 326 313 319 323 325 311 310 300 275 262
304 314 322 328 326 328 332 330 322 330 326 326 315 319 325 321 331 331 331 329 326 329 325 313 324 332 326 324 319 304 317 329 325 317 319 322 312 274
306 333 308 325 324 326 331 327 329 332 329 320 321 325 323 326 335 331 327 329 329 328 325 334 328 323 325 327 322 320 323 321 325 322 320 327 309 297
290 307 320 339 337 331 333 330 332 338 334 326 324 319 327 328 324 326 332 329 328 333 325 326 327 323 325 321 312 310 313 311 322 321 326 329 320 295
262 284 357 278 308 319 324 326 333 323 328 329 333 317 320 320 323 328 324 329 323 333 327 324 328 322 323 319 313 313 312 319 322 320 321 327 321 308
248 275 283 292 311 324 328 333 321 322 316 306 299 314 325 330 333 334 335 332 327 326 330 324 326 324 325 321 317 315 309 321 313 312 323 321 317 310
259 256 275 281 321 324 330 334 331 327 305 309 325 344 340 340 342 328 331 330 325 328 333 330 325 325 326 327 324 317 319 323 312 326 323 326 322 314
292 284 279 299 319 327 337 339 332 332 340 358 0 334 329 335 333 327 326 318 320 321 326 328 329 331 328 327 326 328 321 325 322 324 321 328 334 324
222 261 271 306 318 325 336 338 341 343 359 2 333 328 329 329 331 318 321 322 321 319 324 327 326 328 324 324 326 328 327 315 325 322 323 329 340 337
208 219 250 282 307 322 329 340 345 6 5 330 330 330 331 333 329 333 333 325 323 324 327 322 323 324 323 323 323 326 326 317 320 320 330 336 338 323
208 229 270 284 299 325 335 351 3 355 330 337 332 332 331 331 334 333 331 332 329 331 330 332 328 325 326 321 322 325 325 332 329 335 329 336 339 328
231 242 255 288 337 349 0 340 338 319 334 332 330 331 333 333 335 335 337 335 334 334 334 333 333 334 327 325 327 324 328 328 330 331 328 329 339 334
214 223 271 297 287 302 303 310 322 318 328 326 332 333 335 336 337 341 339 338 337 336 336 337 334 336 333 328 334 329 323 330 333 328 326 327 340 340
205 212 230 237 257 278 294 306 314 318 318 336 332 335 336 337 338 342 340 340 339 339 339 338 337 335 335 336 336 333 337 339 332 330 327 328 339 340
200 216 224 230 244 267 285 295 302 305 342 331 335 336 338 337 342 341 343 342 342 342 341 341 340 341 339 335 341 341 338 333 336 337 334 333 334 334
200 221 225 228 235 249 267 281 295 318 325 332 337 337 340 339 342 343 345 345 343 343 342 344 342 345 338 341 345 338 341 344 342 338 335 335 331 336
211 213 217 220 225 236 252 277 299 312 332 342 336 338 341 344 344 346 345 346 346 345 344 344 346 345 342 341 345 347 346 348 347 344 334 334 338 343
211 209 218 213 215 219 233 262 302 315 324 333 337 338 344 346 347 349 348 346 348 348 347 344 350 352 351 353 352 347 346 352 353 2 331 341 335 326
209 204 215 220 210 220 218 254 292 313 322 330 341 348 347 351 351 351 352 352 353 354 353 351 354 357 357 355 354 351 351 355 357 0 353 351 338 319